Regional Weather Roundup
Issued by NWS

Home | Current Version | Previous Version | Graphics & Text | Print | Product List | Glossary On
Versions: 1 2 3 4 5 6 7 8 9 10 11 12 13 14 15 16 17 18 19 20 21 22 23 24 25 26 27 28 29 30 31 32 33 34 35 36 37 38 39 40 41 42 43 44 45 46 47 48 49 50
000
ASUS45 KBOI 230310
RWRID
WEATHER ROUNDUP FOR IDAHO
NATIONAL WEATHER SERVICE BOISE ID
900 PM MDT MON SEP 22 2014

NOTE: "FAIR" INDICATES FEW OR NO CLOUDS BELOW 12000 FEET
WITH NO SIGNIFICANT WEATHER AND/OR OBSTRUCTIONS TO VISIBILITY

IDZ012-014-230400-
SOUTHWEST IDAHO


CITY           SKY/WX    TMP DP  RH WIND       PRES   REMARKS
BOISE          CLEAR     73  49  42 SE5       29.98R
CALDWELL       CLEAR     72  48  43 E3        29.98R
MOUNTAIN HOME  CLEAR     70  51  50 SE6       30.00R
$$

IDZ016-017-230400-
SOUTHCENTRAL IDAHO


CITY           SKY/WX    TMP DP  RH WIND       PRES   REMARKS
BURLEY         PTCLDY    60  53  77 SE3       30.08R
JEROME         CLEAR     60  51  72 NE5       30.08R
TWIN FALLS     PTCLDY    57  51  80 CALM      30.08R
$$

IDZ019>023-230400-
SOUTHEAST IDAHO


CITY           SKY/WX    TMP DP  RH WIND       PRES   REMARKS
IDAHO FALLS    CLOUDY    66  50  56 S8        30.12R
POCATELLO      CLEAR     59  53  80 S8        30.11S
REXBURG        CLOUDY    60  54  80 E3        30.12S
$$

IDZ006-010-011-018-031-032-230400-
CENTRAL IDAHO MOUNTAINS


CITY           SKY/WX    TMP DP  RH WIND       PRES   REMARKS
MCCALL         PTCLDY    62  47  57 NE3       30.07S
HAILEY         CLEAR     57  54  88 W5        30.16R
STANLEY          N/A     56  47  71 CALM      30.21R
SALMON         MOCLDY    66  52  59 S8        30.04R
CHALLIS        CLOUDY    65  48  54 CALM      30.12R
$$

IDZ002-004-006-007-026-230400-
NORTHERN IDAHO


CITY           SKY/WX    TMP DP  RH WIND       PRES   REMARKS
LEWISTON       CLOUDY    74  54  49 W6        29.89R
LOWELL           N/A     67  57  70 CALM      29.90R
COEUR D`ALENE  MOCLDY    73  48  40 CALM      29.91R
MULLAN PASS    MOCLDY    60  42  51 VRB5      30.12S
$$



USA.gov is the U.S. government's official web portal to all federal, state and local government web resources and services.